Home > Weather > Kugluktuk > Past weeks

Flag for Canada Weather for the Past 2 Weeks in Kugluktuk, Nunavut, Canada

Now
-17 °F

Snow flurries. Clear.


Feels Like: -39 °F
Forecast: -22 / -4 °F
Wind: 13 mph from North

Location: Coppermine

Current Time: Feb 13, 2016 at 4:06:48 AM

Latest Report: Feb 13, 2016 at 3:00 AM


Visibility: 6 mi

Pressure: 29.96 "Hg

Humidity: 76%

Dew point: -22 °F

Location of KugluktukLocation

Historic Weather in Kugluktuk — Graph

°F

Kugluktuk Temperature Yesterday

Maximum temperature yesterday: 0 °F (at 1:00 PM)
Minimum temperature yesterday: -33 °F (at 12:00 AM)
Average temperature yesterday: -15 °F

High & Low Weather Summary for the Past Weeks

 TemperatureHumidityPressure
High0 °F (Feb 12, 1:00 PM)84% (Feb 2, 4:00 AM)30.84 "Hg (Feb 2, 4:00 AM)
Low-38 °F (Feb 9, 7:00 AM)66% (Jan 30, 9:00 AM)29.52 "Hg (Jan 29, 3:00 AM)
Average-24 °F74%30.24 "Hg
* Reported Jan 29 3:00 AM — Feb 13 3:00 AM, Kugluktuk, Weather by CustomWeather, © 2016

Note: Actual official high and low records may vary slightly from our data, if they occured in-between our weather recording intervals... More about our weather records

Advertising

Kugluktuk Weather History for the Previous 24 Hours

 ConditionsComfort  
Time TempWeatherWind HumidityBarometerVisibility
3:00 AM
Sat, Feb 13
-17 °FSnow flurries. Clear.13 mph76%29.96 "Hg6 mi
2:00 AM-15 °FSnow flurries. Clear.12 mph76%29.95 "Hg4 mi
1:00 AM-15 °FSnow flurries. Passing clouds.13 mph76%29.94 "Hg4 mi
12:00 AM-15 °FSnow flurries. Passing clouds.7 mph76%29.94 "Hg4 mi
11:00 PM
Fri, Feb 12
-11 °FSnow flurries. Passing clouds.9 mph84%29.93 "Hg5 mi
10:00 PM-13 °FSnow flurries. Passing clouds.2 mph83%29.93 "Hg12 mi
9:00 PM-6 °FSnow flurries. Passing clouds.2 mph77%29.94 "Hg12 mi
8:00 PM-2 °FLight snow. Partly cloudy.6 mph84%29.96 "Hg2 mi
7:00 PM0 °FLight snow. Mostly cloudy.6 mph78%29.96 "Hg2 mi
6:00 PM0 °FLight snow. Mostly cloudy.2 mph84%29.98 "Hg1 mi
5:00 PM0 °FLight snow. Mostly cloudy.3 mph84%30.01 "Hg2 mi
4:00 PM0 °FLight snow. Mostly cloudy.7 mph84%30.05 "Hg3 mi
3:00 PM-2 °FLight snow. Mostly cloudy.9 mph84%30.08 "Hg1 mi
2:00 PM0 °FLight snow. Overcast.6 mph84%30.11 "Hg1 mi
1:00 PM0 °FLight snow. Overcast.12 mph84%30.14 "Hg1 mi
12:00 PM-11 °FLight snow. Overcast.8 mph76%30.18 "Hg1 mi
11:00 AM-13 °FLight snow. Overcast.2 mph76%30.22 "Hg2 mi
10:00 AM-18 °FLight snow. Mostly cloudy.2 mph75%30.27 "Hg4 mi
9:00 AM-24 °FSnow flurries. Mostly cloudy.3 mph75%30.30 "Hg15 mi
8:00 AM-27 °FSnow flurries. Passing clouds.3 mph74%30.35 "Hg15 mi
7:00 AM-27 °FSnow flurries. Passing clouds.3 mph74%30.39 "Hg15 mi
6:00 AM-24 °FSnow flurries. Passing clouds.3 mph75%30.43 "Hg15 mi
5:00 AM-24 °FSnow flurries. Clear.2 mph75%30.47 "Hg15 mi
4:00 AM-27 °FSnow flurries. Passing clouds.2 mph74%30.50 "Hg15 mi
Weather by CustomWeather, © 2016

See weather overviewHow to use our weather pages